Weather History for Yakima, WA

Change the Weather History Date:

Thursday, January 31, 2013

  Actual Average Record
Temperature  
Mean Temperature 42 °F 34 °F  
Max Temperature 54 °F 42 °F 65 °F (1971)
Min Temperature 29 °F 25 °F -21 °F (1950)
Degree Days  
Heating Degree Days 23 31  
Month to date heating degree days 1055 1057  
Since 1 July heating degree days 3269 3718  
Cooling Degree Days 0 0  
Month to date cooling degree days 0 0  
Year to date cooling degree days 0 0  
Moisture  
Dew Point 33 °F    
Average Humidity 71    
Maximum Humidity 92    
Minimum Humidity 50    
Precipitation  
Precipitation 0.00 in 0.03 in 1.36 in (1963)
Month to date precipitation 0.10 1.14  
Year to date precipitation 0.10 1.14  
Snow  
Snow 0.00 in 0.10 in 103.40 in (1947)
Month to date snowfall 1.1 5.3  
Year to date snowfall 1.1 5.3  
Since 1 July snowfall 15.3 18.3  
Snow Depth 0.00 in    
Sea Level Pressure  
Sea Level Pressure 30.28 in    
Wind  
Wind Speed 3 mph (WNW)    
Max Wind Speed 14 mph    
Max Gust Speed 18 mph    
Visibility 10 miles    
Events      
T = Trace of Precipitation, MM = Missing Value Source: NWS Daily Summary

Daily Weather History Graph

Daily Weather History Graph

Search for Another Location

Airport:

Trip Planner

Search our weather history database for the weather conditions in past years. The results will help you decide how hot, cold, wet, or windy it might be!

Date:

Astronomy

Jan. 31, 2013 Rise Set
Actual Time 7:26 AM PST 5:05 PM PST
Civil Twilight 6:54 AM PST 5:37 PM PST
Nautical Twilight 6:18 AM PST 6:13 PM PST
Astronomical Twilight 5:42 AM PST 6:49 PM PST
Moon 10:36 PM PST (1/31) 9:08 AM PST (1/31)
Length of Visible Light 10h 43m
Length of Day
9h 38m
Waning Gibbous, 79% of the Moon is Illuminated
Jan 31
Waning Gibbous
Feb 3
Last Quarter
Feb 9
New
Feb 17
First Quarter
Feb 25
Full

Hourly Weather History & Observations

Time (PST) Temp. Windchill Dew Point Humidity Pressure Visibility Wind Dir Wind Speed Gust Speed Precip Events Conditions
12:53 AM 48.9 °F - 36.0 °F 61% 30.27 in 10.0 mi NNW 8.1 mph - N/A   Mostly Cloudy
1:53 AM 45.0 °F 43.5 °F 35.1 °F 68% 30.28 in 10.0 mi SE 3.5 mph - N/A   Clear
2:53 AM 46.9 °F - 35.1 °F 63% 30.27 in 10.0 mi Calm Calm - N/A   Clear
3:53 AM 43.0 °F - 34.0 °F 71% 30.29 in 10.0 mi Calm Calm - N/A   Clear
4:53 AM 42.1 °F - 33.1 °F 70% 30.29 in 10.0 mi Calm Calm - N/A   Clear
5:53 AM 39.9 °F - 32.0 °F 73% 30.30 in 10.0 mi Calm Calm - N/A   Clear
6:53 AM 37.9 °F - 32.0 °F 79% 30.31 in 10.0 mi Calm Calm - N/A   Clear
7:53 AM 39.0 °F 36.8 °F 32.0 °F 76% 30.32 in 10.0 mi WNW 3.5 mph - N/A   Scattered Clouds
8:53 AM 37.9 °F - 32.0 °F 79% 30.33 in 10.0 mi Calm Calm - N/A   Scattered Clouds
9:53 AM 42.1 °F - 34.0 °F 73% 30.32 in 10.0 mi Calm Calm - N/A   Clear
10:53 AM 46.9 °F - 36.0 °F 66% 30.30 in 10.0 mi Calm Calm - N/A   Clear
11:53 AM 51.1 °F - 36.0 °F 56% 30.29 in 10.0 mi NW 4.6 mph - N/A   Clear
12:53 PM 53.1 °F - 35.1 °F 50% 30.26 in 10.0 mi WSW 3.5 mph - N/A   Mostly Cloudy
1:53 PM 53.1 °F - 35.1 °F 50% 30.27 in 10.0 mi Calm Calm - N/A   Mostly Cloudy
2:53 PM 53.1 °F - 35.1 °F 50% 30.25 in 10.0 mi Calm Calm - N/A   Mostly Cloudy
3:53 PM 51.1 °F - 36.0 °F 56% 30.25 in 10.0 mi Calm Calm - N/A   Mostly Cloudy
4:53 PM 45.0 °F - 34.0 °F 65% 30.25 in 10.0 mi Calm Calm - N/A   Mostly Cloudy
5:53 PM 37.0 °F 31.0 °F 30.0 °F 76% 30.25 in 10.0 mi WNW 8.1 mph - N/A   Mostly Cloudy
6:53 PM 41.0 °F 39.0 °F 33.1 °F 73% 30.26 in 10.0 mi West 3.5 mph - N/A   Clear
7:53 PM 35.1 °F 30.1 °F 30.0 °F 82% 30.27 in 10.0 mi NW 5.8 mph - N/A   Scattered Clouds
8:53 PM 33.1 °F 27.7 °F 28.9 °F 85% 30.28 in 10.0 mi NW 5.8 mph - N/A   Partly Cloudy
9:53 PM 30.9 °F 25.2 °F 28.0 °F 89% 30.28 in 9.0 mi WNW 5.8 mph - N/A   Clear
10:53 PM 28.9 °F 25.2 °F 25.0 °F 85% 30.28 in 9.0 mi WSW 3.5 mph - N/A   Clear
11:53 PM 32.0 °F 27.5 °F 27.0 °F 82% 30.29 in 10.0 mi WNW 4.6 mph - N/A   Clear